Regional Weather Roundup
Issued by NWS

Home | Current Version | Previous Version | Graphics & Text | Print | Product List | Glossary On
Versions: 1 2 3 4 5 6 7 8 9 10 11 12 13 14 15 16 17 18 19 20 21 22 23 24 25 26 27 28 29 30 31 32 33 34 35 36 37 38 39 40 41 42 43 44 45 46 47 48 49 50
250
ASUS43 KBIS 012102
RWRND

NORTH DAKOTA REGIONAL WEATHER ROUNDUP
NATIONAL WEATHER SERVICE BISMARCK ND
400 PM CDT SUN MAY 01 2016

NOTE: "FAIR" INDICATES FEW OR NO CLOUDS BELOW 12,000 FEET WITH NO
SIGNIFICANT WEATHER AND/OR OBSTRUCTIONS TO VISIBILITY.


NDZ001>003-009>011-017-012200-
NORTHWEST NORTH DAKOTA

CITY           SKY/WX    TMP DP  RH WIND       PRES   REMARKS
WILLISTON      SUNNY     65  26  23 VRB7      30.22F
MINOT          SUNNY     68  24  19 VRB5      30.20F
MINOT AFB      SUNNY     64  26  23 VRB5      30.19F
$$

NDZ018>021-031>035-040>046-012200-
SOUTHWEST NORTH DAKOTA

CITY           SKY/WX    TMP DP  RH WIND       PRES   REMARKS
BISMARCK       SUNNY     64  28  25 VRB7      30.23F
DICKINSON      SUNNY     62  27  26 N13       30.21F
GARRISON         N/A     63  27  25 SW9       30.21F
HETTINGER ARPT SUNNY     59  28  30 MISG      30.24F
$$

NDZ004>008-012>016-024-026-027-054-012200-
NORTHEAST NORTH DAKOTA

CITY           SKY/WX    TMP DP  RH WIND       PRES   REMARKS
GRAND FORKS    SUNNY     65  29  25 VRB5      30.18F
GRND FRKS AFB  SUNNY     64  26  24 NE9       30.19F
DEVILS LAKE    SUNNY     61  28  28 SW13G21   30.20F
$$

NDZ022-023-025-028>030-036>039-047>053-012200-
SOUTHEAST NORTH DAKOTA

CITY           SKY/WX    TMP DP  RH WIND       PRES   REMARKS
FARGO          SUNNY     67  28  23 N14       30.17F
JAMESTOWN      SUNNY     61  28  28 W8        30.19F
$$





USA.gov is the U.S. government's official web portal to all federal, state and local government web resources and services.